Location: Elsenham
(51.9167°N, 0.2333°E)
Time: 08:42:32
(UTC+00:00)

Daily predictions for brighter satellites

Satellite Brightness Start Highest point End
(mag) Time Altitude Azimuth Time Altitude Azimuth Time Altitude Azimuth
COSMOS 2455 4.1 16:17:08 10° W 16:22:27 31° NNW 16:27:48 10° NNE
RESURS DK-1 2.5 16:21:52 10° SW 16:25:59 82° WNW 16:30:10 10° NNE
Cosmos 1862 Rocket 4.1 16:21:55 10° SSE 16:26:00 40° E 16:30:09 10° NNE
STARLINK-46 2.4 16:24:10 10° W 16:26:51 84° N 16:29:32 10° ENE
Cosmos 1743 4.2 16:27:37 10° NNE 16:30:10 17° ENE 16:32:43 10° ESE
SMAP 3.5 16:27:24 10° SE 16:31:42 38° ENE 16:36:02 10° N
Cosmos 1536 3.0 16:28:43 10° N 16:32:38 48° ENE 16:36:30 10° SSE
SL-16 R/B 3.5 16:28:47 10° SSE 16:33:01 22° E 16:37:15 10° NE
Landsat 5 4.4 16:30:44 10° N 16:34:35 47° WNW 16:38:34 10° SW
Feng Yun 1-1 Rocket 4.4 16:30:32 10° SE 16:35:40 47° ENE 16:40:52 10° N
CZ-4B R/B 1.7 16:34:15 10° N 16:37:46 75° WNW 16:41:12 10° SSW
Cosmos 2237 Rocket 2.4 16:34:34 10° S 16:40:07 56° ESE 16:45:41 10° NE
Cosmos 2344 4.4 16:32:30 10° NW 16:40:39 47° NNE 16:51:26 10° E
Cosmos 1707 Rocket 3.9 16:36:23 10° SSW 16:40:51 72° WNW 16:45:20 10° N
Lacrosse 5 rocket 1.4 16:36:40 10° WSW 16:40:58 82° NNW 16:44:56 11° ENE
ALOS 3.0 16:39:18 10° S 16:43:54 58° W 16:48:32 10° NNW
Cosmos 2322 Rocket 4.0 16:39:38 10° W 16:43:58 22° NW 16:48:20 10° NNE
Cosmos 1943 Rocket 2.9 16:39:32 10° NNW 16:44:34 31° NE 16:49:32 10° ESE
Cosmos 1500 3.3 16:40:54 10° NNW 16:44:40 81° W 16:48:25 10° S
NOSS 3-1 (C) 4.3 16:38:44 10° NW 16:45:19 44° NNE 16:52:57 10° E
SL-4 R/B 1.8 16:41:43 10° W 16:45:24 87° S 16:49:24 10° E
Meteor 2-6 Rocket 4.3 16:40:23 10° SSW 16:45:47 81° WNW 16:51:19 10° NNE
Cosmos 1812 2.7 16:41:59 10° S 16:45:49 65° E 16:49:39 10° NNE
Cosmos 2219 Rocket 2.6 16:41:03 10° SW 16:46:38 64° NW 16:52:17 10° NNE
Cosmos 2333 Rocket 2.7 16:43:01 10° SW 16:48:43 62° NW 16:54:29 10° NNE
Okean O Rocket 2.1 16:45:24 10° S 16:49:42 65° WSW 16:54:04 10° NNW
USA 267 3.3 16:44:56 10° ESE 16:51:31 89° SSW 16:58:07 10° WNW
Cosmos 292 Rocket 3.9 16:49:44 10° NNW 16:54:39 86° WSW 16:59:30 10° SSE
SL-16 R/B 4.1 16:51:33 10° WNW 16:55:29 19° NNW 16:59:25 10° NNE
Radarsat Rocket 4.3 16:50:25 10° S 16:56:22 71° WSW 17:02:13 10° NNW
USA 229 DEB 4.1 16:49:34 10° NW 16:56:22 47° NNE 17:03:30 10° E
USA 229 4.1 16:49:40 10° NW 16:56:28 46° NNE 17:03:34 10° E
Envisat 3.5 16:52:14 10° SE 16:56:54 38° ENE 17:01:35 10° N
Cosmos 2242 Rocket 3.8 16:53:24 10° S 16:57:51 53° E 17:02:20 10° NNE
Cosmos 1908 Rocket 3.5 16:53:40 10° N 16:58:03 63° ENE 17:02:23 10° SSE
Aureole 1 Rocket 3.1 16:55:34 10° S 16:58:21 33° ESE 17:00:55 14° NE
Cosmos 1092 Rocket 4.3 16:53:04 10° SSE 16:59:02 48° E 17:04:59 10° NNE
Cosmos 2251 Rocket 3.6 16:54:15 10° SSW 16:59:33 88° WNW 17:04:52 10° NNE
Okean 1-7 3.9 16:55:53 10° SSE 16:59:39 29° E 17:03:28 10° NNE
NOSS 3-4 (A) 4.2 16:55:24 10° WSW 17:01:20 48° NNW 17:07:24 12° NE
NOSS 3-4 (C) 4.1 16:55:30 10° WSW 17:01:26 48° NNW 17:07:30 12° NE
NOSS 3-1 (A) 4.4 16:55:06 10° NW 17:01:36 41° NNE 17:09:00 10° E
Cosmos 405 Rocket 4.2 17:00:17 10° NNE 17:02:38 16° ENE 17:02:42 16° ENE
Cosmos 407 Rocket 4.3 17:00:14 10° SSE 17:04:48 32° ESE 17:08:45 13° NE
COSMO-SKYMED 1 4.0 17:05:20 16° ENE 17:06:48 18° E 17:09:47 10° SE
Cosmos 1980 3.7 17:06:31 10° SSW 17:12:11 87° WNW 17:17:54 10° NNE
YAOGAN 1 3.6 17:10:34 10° ESE 17:14:00 24° ENE 17:17:28 10° N
Cosmos 1441 Rocket 3.0 17:10:59 10° N 17:14:48 69° ENE 17:18:33 10° SSE
CZ-4 R/B 2.2 17:11:51 10° ESE 17:15:02 25° ENE 17:18:14 10° N
Okean-O 2.7 17:10:55 10° SE 17:15:13 52° ENE 17:19:33 10° N
FALCON 9 DEB 3.5 17:14:34 10° SW 17:18:00 54° SSE 17:19:57 23° E
H-2A R/B 2.6 17:15:51 10° SSE 17:19:32 89° E 17:23:15 10° NNW
Cosmos 2297 3.9 17:15:23 10° NNW 17:21:06 78° WSW 17:26:46 10° SSE
Cosmos 921 Rocket 3.0 17:17:50 10° NNW 17:22:09 88° WSW 17:26:30 10° SSE
NOAA 12 4.0 17:16:59 10° SSE 17:22:13 69° ENE 17:27:29 10° N
Cosmos 1975 3.3 17:22:47 10° N 17:26:33 37° ENE 17:30:18 10° SE
Cosmos 1689 Rocket 4.1 17:24:58 10° N 17:27:39 28° WNW 17:30:17 10° SW
Cosmos 1666 3.1 17:24:49 10° NNW 17:28:32 62° W 17:32:12 10° S
S3M 4.3 17:24:05 10° N 17:29:55 41° ENE 17:35:40 10° SE
SeaSat 1 4.0 17:29:56 16° NE 17:30:19 17° NNE 17:33:21 10° N
Lacrosse 4 Rocket 3.1 17:28:32 10° NNW 17:31:11 17° NNE 17:31:11 17° NNE
Exosat Rocket 3.9 17:26:43 10° SW 17:31:43 63° WNW 17:36:49 11° NNE
Nadezhda 4 Rocket 4.3 17:25:52 10° SSW 17:32:10 73° WNW 17:38:30 10° N
Meteor 1-27 Rocket 4.4 17:32:53 10° SSW 17:38:38 60° WNW 17:44:30 10° N
Lacrosse 5 3.6 17:35:51 10° SSE 17:38:39 15° ESE 17:38:59 15° ESE
ATLAS 2AS CENTAUR R/B 3.9 17:32:15 10° W 17:39:46 40° NNW 17:45:11 18° NE
Ariane Rocket 4.1 17:40:51 23° NE 17:40:51 23° NE 17:44:15 10° N
Cosmos 1553 Rocket 4.0 17:34:24 10° N 17:40:44 60° ENE 17:47:05 10° SSE
NOSS 0 Rocket 4.5 17:34:58 10° SW 17:41:06 57° NW 17:46:42 13° NNE
Cosmos 2151 Rocket 4.2 17:37:17 10° N 17:41:19 33° ENE 17:45:18 10° SE
COSMOS 2428 4.1 17:36:57 10° WSW 17:42:03 33° NW 17:47:12 10° NNE
Uosat 12 SS-18 rocket 4.1 17:37:24 10° NW 17:42:27 78° NE 17:46:22 13° SE
YAOGAN 6 2.6 17:39:12 10° SSE 17:42:42 56° ENE 17:46:17 10° N
STARLINK-60 3.0 17:39:31 10° WSW 17:42:53 82° SSE 17:43:50 45° E
Cosmos 1867 3.9 17:39:18 10° NW 17:44:45 69° SW 17:50:08 10° SSE
Cosmos 1763 Rocket 4.2 17:41:30 10° N 17:45:58 30° NE 17:46:30 29° ENE
Meteor 2-9 Rocket 4.3 17:41:31 10° N 17:47:22 59° ENE 17:53:04 10° SSE
Cosmos 489 Rocket 4.4 17:41:46 10° NNW 17:48:11 84° ENE 17:54:33 10° SSE
CZ-4C R/B 3.6 17:46:48 10° SSE 17:49:23 17° ESE 17:49:23 17° ESE
STARLINK-52 3.2 17:47:10 10° WSW 17:50:40 68° SSE 17:51:25 49° E
STARLINK-67 2.6 17:49:03 10° WNW 17:51:48 67° SSW 17:51:59 64° S
Cosmos 2026 Rocket 3.8 17:47:13 10° S 17:53:16 81° E 17:59:23 10° NNE
Cosmos 1782 Rocket 3.9 17:48:57 10° NNW 17:53:17 66° W 17:57:34 10° S
NOAA 11 4.4 17:48:58 10° SE 17:54:09 46° ENE 17:59:23 10° N
SKYMED 2 3.8 17:53:59 36° NE 17:55:18 47° E 17:59:30 10° S
COBE Rocket 4.1 17:51:12 10° N 17:55:50 68° WNW 18:00:31 10° SSW
USA 215 3.2 17:54:37 27° ENE 17:58:28 82° SSE 18:05:02 10° WSW
ATLAS 5 CENTAUR R/B 1.3 17:56:31 10° SW 17:58:07 50° SW 17:58:07 50° SW
STARLINK-29 3.1 17:55:15 10° WSW 17:58:47 78° SSE 17:59:15 63° E
Cosmos 2360 Rocket 4.4 17:56:01 10° WNW 17:59:30 16° NNW 18:02:58 10° NNE
STARLINK-46 3.2 17:58:29 10° WNW 18:00:35 49° WNW 18:00:35 49° WNW
Cosmos 1190 Rocket 3.9 17:56:56 10° SSW 18:02:07 76° ESE 18:04:55 28° NNE
Cosmos 676 Rocket 4.1 17:59:56 10° S 18:04:55 51° ESE 18:06:19 40° ENE
Cosmos 1656 Rocket 4.0 17:59:58 10° NNW 18:05:09 42° NE 18:06:00 39° ENE
Cosmos 614 Rocket 3.9 18:00:20 10° SSW 18:05:25 87° WNW 18:08:23 26° NNE
Cosmos 1743 3.4 18:02:30 10° NNW 18:06:19 56° W 18:10:07 10° S
Cosmos 2369 Rocket 2.1 18:00:54 10° NNW 18:06:34 79° ENE 18:12:14 10° SE
BREEZE-M R/B 3.5 18:02:15 10° W 18:07:08 45° SSW 18:08:07 34° SSE
Cosmos 1703 Rocket 4.2 18:03:10 10° SSW 18:07:35 57° WNW 18:12:02 10° N
Okean 2 Rocket 3.0 18:03:35 10° N 18:08:06 83° ENE 18:12:37 10° SSE
Cosmos 1980 Rocket 4.3 18:06:52 10° NNW 18:08:30 11° N 18:09:25 11° NNE
Meteor 1-18 Rocket 4.1 18:03:08 10° S 18:08:49 80° E 18:13:49 13° NNE
Cosmos 1954 Rocket 4.0 18:05:58 10° S 18:10:59 54° ESE 18:12:08 45° ENE
Cosmos 1417 Rocket 4.4 18:06:32 10° N 18:12:42 89° W 18:18:51 10° S
Sich 1 Rocket 4.2 18:09:04 10° NNW 18:13:22 55° W 18:17:39 10° S
Cosmos 2221 Rocket 3.4 18:11:34 10° S 18:16:00 71° E 18:16:58 52° NE
SL-16 R/B 2.3 18:10:49 10° SW 18:16:31 78° WNW 18:19:41 28° NNE
Cosmos 2315 Rocket 4.2 18:10:48 10° N 18:16:51 45° ENE 18:18:41 36° ESE
USA 116 4.4 18:17:15 46° NE 18:18:22 55° E 18:23:15 10° S
Cosmos 1174 4.1 18:14:29 10° SW 18:19:02 65° NW 18:19:44 53° N
Lacrosse 5 rocket 2.0 18:16:33 10° WNW 18:20:30 40° N 18:20:34 40° N
IRIDIUM 104 4.4 18:15:43 10° SSE 18:20:46 53° E 18:20:58 52° ENE
Cosmos 1603 4.0 18:18:30 10° S 18:23:46 44° ESE 18:23:46 44° ESE
Cosmos 2237 Rocket 3.5 18:19:15 10° WSW 18:24:29 35° NW 18:28:15 17° NNE
STARLINK-43 4.2 18:21:17 10° SW 18:24:11 42° S 18:24:11 42° S
SL-4 R/B 2.0 18:21:11 10° W 18:25:00 66° SSW 18:25:07 66° S
Cosmos 1943 Rocket 2.5 18:23:10 10° NW 18:28:47 66° WSW 18:34:17 10° SSE
IRIDIUM 114 4.2 18:24:44 10° SSE 18:29:52 63° E 18:30:06 62° ENE
Cosmos 2322 Rocket 4.5 18:28:39 10° NNW 18:30:22 11° N 18:31:57 10° N
Okean 1 4.1 18:26:57 10° SSW 18:30:49 50° WNW 18:32:27 30° NNW
Cosmos 2219 Rocket 4.2 18:27:42 10° WNW 18:31:45 20° NNW 18:35:04 13° N
Cosmos 1140 Rocket 3.5 18:26:48 10° SSW 18:31:56 80° WNW 18:33:39 43° NNE
Meteor 2-8 Rocket 4.3 18:26:01 10° N 18:32:02 59° ENE 18:34:17 37° SE
Cosmos 2333 Rocket 4.3 18:30:03 10° WNW 18:34:12 20° NNW 18:37:30 13° N
Cosmos 1241 Rocket 4.4 18:29:07 10° SSW 18:35:25 69° SE 18:36:40 55° ENE
Envisat 4.5 18:31:15 10° SSW 18:35:57 37° W 18:40:41 10° NNW
NOSS 3-1 (C) 4.0 18:29:37 10° NW 18:36:57 84° SW 18:43:02 21° SE
Cosmos 405 Rocket 3.6 18:35:21 10° NNW 18:44:11 - S 18:38:04 41° NW
IRIDIUM 103 4.1 18:33:50 10° S 18:39:01 74° E 18:39:16 72° ENE
Cosmos 468 Rocket 3.8 18:35:38 10° NNW 18:40:51 83° ENE 18:41:23 71° SE
SL-16 R/B 4.5 18:40:36 10° NNW 18:42:06 11° N 18:42:56 11° N
COSMO-SKYMED 1 2.9 18:42:33 51° NNW 18:43:22 62° WNW 18:47:39 10° SSW
Cosmos 1300 Rocket 4.0 18:40:04 10° NNW 18:44:20 60° W 18:48:34 10° S
Meteor 2-13 Rocket 4.3 18:39:30 10° S 18:45:35 87° W 18:50:03 20° N
CSL-04 Rocket 4.0 18:40:21 10° S 18:45:35 64° WSW 18:50:54 10° NNW
Meteor 2-4 Rocket 3.6 18:40:15 10° S 18:46:05 80° E 18:47:11 60° NNE
Cosmos 407 Rocket 4.3 18:41:35 10° SW 18:46:38 48° WNW 18:48:59 29° N
USA 229 DEB 4.0 18:40:40 10° NW 18:47:51 73° SW 18:52:32 25° SSE
USA 229 4.0 18:40:46 10° NW 18:47:56 74° SW 18:52:32 26° SSE
Cosmos 1655 Rocket 4.0 18:41:39 10° S 18:47:57 83° W 18:53:53 12° N
YAOGAN 1 3.4 18:45:39 10° S 18:49:51 50° W 18:54:05 10° NNW
CZ-4 R/B 2.8 18:46:23 10° SSW 18:49:58 36° W 18:53:33 10° NNW
NOSS 3-1 (A) 3.9 18:46:05 10° NW 18:53:24 89° NE 18:56:30 43° SE
Cosmos 2344 4.3 18:47:07 10° NW 18:56:25 89° SW 19:05:28 23° SE
IRIDIUM 106 4.3 18:52:06 10° S 18:57:20 81° W 18:57:27 80° WNW
SeaSat 1 4.1 19:09:43 25° NNW 19:09:43 25° NNW 19:11:48 10° NNW
Lacrosse 4 Rocket 3.8 19:06:34 10° NNW 19:07:31 16° NNW 19:07:31 16° NNW
Ariane Rocket 4.3 19:21:03 34° NNW 19:21:03 34° NNW 19:23:54 10° NNW
Lacrosse 5 3.4 19:15:45 10° SW 19:18:13 28° SSW 19:18:13 28° SSW
Cosmos 2266 Rocket 4.2 19:16:48 10° SSW 19:23:11 69° WNW 19:24:58 48° NNW
ATLAS 2AS CENTAUR R/B 3.8 19:25:28 10° NW 19:32:36 36° N 19:32:36 36° N
CZ-4C R/B 3.7 19:32:26 10° SW 19:34:37 27° SW 19:34:37 27° SW
USA 215 3.6 19:41:58 59° NW 19:41:58 59° NW 19:47:49 10° W
Cosmos 2369 Rocket 4.4 19:45:51 10° NW 19:50:00 21° WSW 19:54:08 10° SSW
SL-16 R/B 4.1 19:57:09 10° W 20:01:35 23° NW 20:01:35 23° NW
